Regional Weather Roundup
Issued by NWS

Home | Current Version | Previous Version | Text Only | Print | Product List | Glossary On
Versions: 1 2 3 4 5 6 7 8 9 10 11 12 13 14 15 16 17 18 19 20 21 22 23 24 25 26 27 28 29 30 31 32 33 34 35 36 37 38 39 40 41 42 43 44 45 46 47 48 49 50
211
ASUS44 KJAN 232110
RWRMS

MISSISSIPPI HOURLY WEATHER ROUNDUP
NATIONAL WEATHER SERVICE JACKSON MS
400 PM CDT WED APR 23 2014

NOTE: "FAIR: INDICATES FEW OR NO CLOUDS BELOW 12,000 FEET WITH NO
SIGNIFICANT WEATHER AND/OR OBSTRUCTIONS TO VISIBILITY.

MSZ001>002-007>008-010>013-018>021-025>028-034>036-232200-
NORTHWEST MISSISSIPPI

CITY           SKY/WX    TMP DP  RH WIND       PRES   REMARKS
CLARKSDALE       N/A     77  41  27 CALM      29.95F
CLEVELAND      FAIR      77  45  31 E3        29.94F
GREENWOOD      SUNNY     79  39  23 NE8       29.93F
GREENVILLE     SUNNY     79  41  25 VRB6      29.94F
GRENADA        FAIR      77  45  31 SE6       29.94F
OLIVE BRANCH   SUNNY     75  34  22 CALM      29.96F
OXFORD         LGT RAIN  75  32  20 CALM      29.96F
TUNICA         CLEAR     77  39  25 CALM      29.95F
$$

MSZ003>006-009-014>017-022>024-029>033-037>039-232200-
NORTHEAST MISSISSIPPI

CITY           SKY/WX    TMP DP  RH WIND       PRES   REMARKS
BELMONT        FAIR      74  41  30 N5        29.96F
COLUMBUS AFB   SUNNY     78  38  23 W7        29.94F
CORINTH        FAIR      75  32  20 NE8       29.96F
GOLDN TRIANGLE SUNNY     79  43  27 NE7       29.96F
STARKVILLE     FAIR      75  37  25 CALM      29.94F
TUPELO         SUNNY     77  38  24 CALM      29.95F
$$

MSZ040-058-232200-
CENTRAL MISSISSIPPI

CITY           SKY/WX    TMP DP  RH WIND       PRES   REMARKS
JACKSON INTL   SUNNY     80  46  30 CALM      29.92F
JACKSON HAWKNS SUNNY     81  42  25 SE5       29.93F
MERIDIAN KEY   SUNNY     80  50  34 CALM      29.92F
MERIDIAN NAS   SUNNY     79  47  32 VRB5      29.93F
RAYMOND        FAIR      81  75  83 CALM      29.92F
VICKSBURG      SUNNY     81  44  27 N8        29.93F
$$

MSZ059>079-232200-
SOUTH MISSISSIPPI

CITY           SKY/WX    TMP DP  RH WIND       PRES   REMARKS
BROOKHAVEN     FAIR      81  46  30 CALM      29.93F
HATTIESBURG    SUNNY     83  52  34 NW3       29.90F
MCCOMB         SUNNY     82  46  28 W7        29.91F
NATCHEZ        SUNNY     81  45  28 NW9       29.92F
PINE BELT      MOSUNNY   81  52  36 CALM      29.92F
$$

MSZ080>082-232200-
COASTAL MISSISSIPPI

CITY           SKY/WX    TMP DP  RH WIND       PRES   REMARKS
BAY ST LOUIS   MOSUNNY   82  61  47 S10       29.91F
BILOXI         SUNNY     76  67  75 S12       29.90F
PASCAGOULA     SUNNY     78  65  63 SW7       29.90F
GULFPORT       SUNNY     79  63  57 S7        29.90F
$$



USA.gov is the U.S. government's official web portal to all federal, state and local government web resources and services.